Private Wetterstation Wechselburg
Wetterdaten: Freitag, 16.10.2009
Datum Zeit Temp. +2m Bodentemp. Temp.+5cm Temp. Wind Windchill X Diff Temp. Feuchte +2m Feuchte +5cm Sonnenschein Luftdruck Regen Wind Richtung Richtung Sonnenschein UV Taupunkt Windchill Windben
16.10.2009 00:00 3,2 C 8,3 C 3,1 C 2,8 C 2,1 C 0,0 C 92 % 97 % 0 % 1022,8 hPa 0,0 l/m 3,9 km/h (1 Bft) W-SW 247 0 min 0,0 UV-I 2,0 C 2,1 C 4,3 km/h (1 Bft)
16.10.2009 00:06 3,3 C 8,3 C 3,1 C 2,8 C 1,9 C 0,0 C 92 % 97 % 0 % 1022,5 hPa 0,0 l/m 4,0 km/h (1 Bft) S 180 0 min 0,0 UV-I 2,1 C 1,9 C 10,9 km/h (2 Bft)
16.10.2009 00:07 3,3 C 8,3 C 3,1 C 2,8 C 1,9 C 0,0 C 92 % 97 % 0 % 1022,5 hPa 0,0 l/m 4,2 km/h (1 Bft) SW 225 0 min 0,0 UV-I 2,1 C 1,9 C 5,1 km/h (1 Bft)
16.10.2009 00:10 3,3 C 8,3 C 3,1 C 2,8 C 1,9 C 0,0 C 92 % 97 % 0 % 1022,5 hPa 0,0 l/m 4,2 km/h (1 Bft) SW 225 0 min 0,0 UV-I 2,1 C 1,9 C 5,1 km/h (1 Bft)
16.10.2009 00:15 3,3 C 8,3 C 3,1 C 2,8 C 1,9 C 0,0 C 92 % 97 % 0 % 1022,5 hPa 0,0 l/m 4,2 km/h (1 Bft) W-SW 247 0 min 0,0 UV-I 2,1 C 1,9 C 2,9 km/h (1 Bft)
16.10.2009 00:20 3,3 C 8,3 C 3,1 C 3,0 C 2,4 C 0,0 C 92 % 97 % 0 % 1022,5 hPa 0,0 l/m 3,2 km/h (1 Bft) W-SW 247 0 min 0,0 UV-I 2,1 C 2,4 C 4,5 km/h (1 Bft)
16.10.2009 00:25 3,3 C 8,3 C 3,1 C 3,0 C 2,5 C 0,0 C 92 % 97 % 0 % 1022,9 hPa 0,0 l/m 3,1 km/h (1 Bft) SW 225 0 min 0,0 UV-I 2,1 C 2,5 C 3,4 km/h (1 Bft)
16.10.2009 00:30 3,3 C 8,3 C 3,1 C 2,8 C 1,7 C 0,0 C 92 % 97 % 0 % 1022,9 hPa 0,0 l/m 4,5 km/h (1 Bft) SW 225 0 min 0,0 UV-I 2,1 C 1,7 C 8,0 km/h (2 Bft)
16.10.2009 00:35 3,3 C 8,3 C 3,1 C 2,7 C 1,6 C 0,0 C 92 % 97 % 0 % 1022,9 hPa 0,0 l/m 4,7 km/h (1 Bft) S 180 0 min 0,0 UV-I 2,1 C 0,4 C 5,1 km/h (1 Bft)
16.10.2009 00:40 3,3 C 8,3 C 3,1 C 2,7 C 1,6 C 0,0 C 92 % 97 % 0 % 1022,9 hPa 0,0 l/m 4,7 km/h (1 Bft) SW 225 0 min 0,0 UV-I 2,1 C 0,4 C 6,6 km/h (2 Bft)
16.10.2009 00:45 3,3 C 8,3 C 3,1 C 2,8 C 1,8 C 0,0 C 92 % 97 % 0 % 1022,6 hPa 0,0 l/m 4,3 km/h (1 Bft) S 180 0 min 0,0 UV-I 2,1 C 1,8 C 6,6 km/h (2 Bft)
16.10.2009 00:50 3,3 C 8,3 C 3,1 C 2,8 C 1,8 C 0,0 C 92 % 97 % 0 % 1022,6 hPa 0,0 l/m 4,3 km/h (1 Bft) S 180 0 min 0,0 UV-I 2,1 C 1,8 C 3,4 km/h (1 Bft)
16.10.2009 00:55 3,3 C 8,3 C 3,1 C 2,8 C 1,8 C 0,0 C 92 % 97 % 0 % 1022,6 hPa 0,0 l/m 4,3 km/h (1 Bft) SW 225 0 min 0,0 UV-I 2,1 C 1,8 C 8,0 km/h (2 Bft)
16.10.2009 01:00 3,3 C 8,3 C 3,1 C 2,7 C 1,5 C 0,0 C 92 % 97 % 0 % 1022,6 hPa 0,0 l/m 5,0 km/h (1 Bft) W-SW 247 0 min 0,0 UV-I 2,1 C 0,1 C 9,3 km/h (2 Bft)
16.10.2009 01:06 3,3 C 8,3 C 3,1 C 2,6 C 1,2 C 0,0 C 92 % 97 % 0 % 1022,4 hPa 0,0 l/m 5,6 km/h (1 Bft) S-SW 202 0 min 0,0 UV-I 2,1 C -0,5 C 4,8 km/h (1 Bft)
16.10.2009 01:07 3,3 C 8,3 C 3,1 C 2,7 C 1,4 C 0,0 C 92 % 97 % 0 % 1022,4 hPa 0,0 l/m 5,3 km/h (1 Bft) W-SW 247 0 min 0,0 UV-I 2,1 C -0,1 C 5,0 km/h (1 Bft)
16.10.2009 01:08 3,3 C 8,3 C 3,1 C 2,7 C 1,4 C 0,0 C 92 % 97 % 0 % 1022,4 hPa 0,0 l/m 5,3 km/h (1 Bft) W-SW 247 0 min 0,0 UV-I 2,1 C -0,1 C 11,7 km/h (2 Bft)
16.10.2009 01:10 3,3 C 8,3 C 3,1 C 2,7 C 1,4 C 0,0 C 92 % 97 % 0 % 1022,4 hPa 0,0 l/m 5,3 km/h (1 Bft) W-SW 247 0 min 0,0 UV-I 2,1 C -0,1 C 5,0 km/h (1 Bft)
16.10.2009 01:15 3,3 C 8,3 C 3,1 C 2,8 C 1,7 C 0,0 C 92 % 97 % 0 % 1022,4 hPa 0,0 l/m 4,5 km/h (1 Bft) W-SW 247 0 min 0,0 UV-I 2,1 C 1,7 C 6,1 km/h (2 Bft)
16.10.2009 01:20 3,3 C 8,3 C 3,2 C 2,8 C 1,9 C 0,0 C 92 % 97 % 0 % 1022,4 hPa 0,0 l/m 4,2 km/h (1 Bft) S-SW 202 0 min 0,0 UV-I 2,1 C 1,9 C 4,5 km/h (1 Bft)
16.10.2009 01:25 3,3 C 8,3 C 3,2 C 2,8 C 1,8 C 0,0 C 92 % 97 % 0 % 1022,0 hPa 0,0 l/m 4,5 km/h (1 Bft) SW 225 0 min 0,0 UV-I 2,1 C 1,8 C 5,1 km/h (1 Bft)
16.10.2009 01:30 3,3 C 8,3 C 3,2 C 2,6 C 1,3 C 0,0 C 92 % 97 % 0 % 1022,0 hPa 0,0 l/m 5,5 km/h (1 Bft) SW 225 0 min 0,0 UV-I 2,1 C -0,3 C 8,7 km/h (2 Bft)
16.10.2009 01:35 3,4 C 8,3 C 3,2 C 2,7 C 1,2 C 0,0 C 92 % 97 % 0 % 1022,0 hPa 0,0 l/m 6,0 km/h (2 Bft) S-SW 202 0 min 0,0 UV-I 2,2 C -0,6 C 7,6 km/h (2 Bft)
16.10.2009 01:40 3,3 C 8,3 C 3,2 C 2,6 C 1,3 C 0,0 C 92 % 97 % 0 % 1022,0 hPa 0,0 l/m 5,6 km/h (1 Bft) SW 225 0 min 0,0 UV-I 2,1 C -0,4 C 3,7 km/h (1 Bft)
16.10.2009 01:45 3,4 C 8,3 C 3,2 C 2,7 C 1,2 C 0,0 C 92 % 97 % 0 % 1021,8 hPa 0,0 l/m 5,8 km/h (2 Bft) SW 225 0 min 0,0 UV-I 2,2 C -0,6 C 7,6 km/h (2 Bft)
16.10.2009 01:50 3,4 C 8,3 C 3,2 C 2,7 C 1,3 C 0,0 C 92 % 97 % 0 % 1021,8 hPa 0,0 l/m 5,6 km/h (1 Bft) SW 225 0 min 0,0 UV-I 2,2 C -0,4 C 12,4 km/h (3 Bft)
16.10.2009 01:55 3,3 C 8,3 C 3,2 C 2,7 C 1,6 C 0,0 C 92 % 97 % 0 % 1021,8 hPa 0,0 l/m 4,8 km/h (1 Bft) SW 225 0 min 0,0 UV-I 2,1 C 0,3 C 4,3 km/h (1 Bft)
16.10.2009 02:00 3,4 C 8,3 C 3,2 C 2,8 C 1,5 C 0,0 C 92 % 97 % 0 % 1021,8 hPa 0,7 l/m 5,1 km/h (1 Bft) W-SW 247 0 min 0,0 UV-I 2,2 C 0,1 C 7,9 km/h (2 Bft)
16.10.2009 02:06 3,5 C 8,3 C 3,2 C 2,8 C 1,3 C 0,0 C 92 % 97 % 0 % 1021,6 hPa 0,0 l/m 5,6 km/h (1 Bft) SW 225 0 min 0,0 UV-I 2,3 C -0,4 C 9,8 km/h (2 Bft)
16.10.2009 02:07 3,4 C 8,3 C 3,2 C 2,7 C 1,4 C 0,0 C 93 % 97 % 0 % 1021,6 hPa 0,0 l/m 5,3 km/h (1 Bft) SW 225 0 min 0,0 UV-I 2,4 C -0,1 C 4,7 km/h (1 Bft)
16.10.2009 02:08 3,4 C 8,3 C 3,2 C 2,7 C 1,4 C 0,0 C 93 % 97 % 0 % 1021,6 hPa 0,0 l/m 5,3 km/h (1 Bft) SW 225 0 min 0,0 UV-I 2,4 C -0,1 C 4,7 km/h (1 Bft)
16.10.2009 02:09 3,4 C 8,3 C 3,2 C 2,7 C 1,4 C 0,0 C 93 % 97 % 0 % 1021,6 hPa 0,0 l/m 5,3 km/h (1 Bft) SW 225 0 min 0,0 UV-I 2,4 C -0,1 C 4,7 km/h (1 Bft)
16.10.2009 02:10 3,4 C 8,3 C 3,2 C 2,7 C 1,4 C 0,0 C 93 % 97 % 0 % 1021,6 hPa 0,0 l/m 5,3 km/h (1 Bft) SW 225 0 min 0,0 UV-I 2,4 C -0,1 C 4,7 km/h (1 Bft)
16.10.2009 02:11 3,4 C 8,3 C 3,2 C 2,8 C 1,5 C 0,0 C 93 % 97 % 0 % 1021,6 hPa 0,0 l/m 5,1 km/h (1 Bft) W-SW 247 0 min 0,0 UV-I 2,4 C 0,1 C 5,1 km/h (1 Bft)
16.10.2009 02:14 3,4 C 8,3 C 3,2 C 2,8 C 1,5 C 0,0 C 93 % 97 % 0 % 1021,6 hPa 0,0 l/m 5,1 km/h (1 Bft) W-SW 247 0 min 0,0 UV-I 2,4 C 0,1 C 5,1 km/h (1 Bft)
16.10.2009 02:20 3,3 C 8,3 C 3,2 C 2,6 C 1,3 C 0,0 C 92 % 97 % 0 % 1021,6 hPa 0,0 l/m 5,6 km/h (1 Bft) SW 225 0 min 0,0 UV-I 2,1 C -0,4 C 7,6 km/h (2 Bft)
16.10.2009 02:25 3,4 C 8,3 C 3,1 C 2,7 C 1,2 C 0,0 C 92 % 97 % 0 % 1021,5 hPa 0,0 l/m 6,0 km/h (2 Bft) S-SW 202 0 min 0,0 UV-I 2,2 C -0,6 C 9,7 km/h (2 Bft)
16.10.2009 02:30 3,4 C 8,3 C 3,1 C 2,7 C 1,2 C 0,0 C 92 % 97 % 0 % 1021,5 hPa 0,0 l/m 6,0 km/h (2 Bft) SW 225 0 min 0,0 UV-I 2,2 C -0,6 C 14,3 km/h (3 Bft)
16.10.2009 02:35 3,3 C 8,3 C 3,1 C 2,5 C 0,9 C 0,0 C 92 % 97 % 0 % 1021,5 hPa 0,0 l/m 6,6 km/h (2 Bft) S 180 0 min 0,0 UV-I 2,1 C -1,2 C 9,0 km/h (2 Bft)
16.10.2009 02:40 3,3 C 8,3 C 3,0 C 2,3 C 0,4 C 0,0 C 92 % 97 % 0 % 1021,5 hPa 0,0 l/m 7,6 km/h (2 Bft) SO 135 0 min 0,0 UV-I 2,1 C -2,1 C 20,1 km/h (4 Bft)
16.10.2009 02:45 3,2 C 8,3 C 3,0 C 2,3 C 0,4 C 0,0 C 92 % 97 % 0 % 1021,8 hPa 0,0 l/m 7,6 km/h (2 Bft) W 270 0 min 0,0 UV-I 2,0 C -2,1 C 5,0 km/h (1 Bft)
16.10.2009 02:50 3,2 C 8,3 C 2,9 C 2,4 C 0,7 C 0,0 C 92 % 97 % 0 % 1021,8 hPa 0,7 l/m 6,8 km/h (2 Bft) N-NW 337 0 min 0,0 UV-I 2,0 C -1,5 C 6,9 km/h (2 Bft)
16.10.2009 02:55 3,2 C 8,3 C 2,9 C 2,5 C 1,1 C 0,0 C 92 % 97 % 0 % 1021,8 hPa 0,0 l/m 5,8 km/h (2 Bft) SW 225 0 min 0,0 UV-I 2,0 C -0,7 C 5,3 km/h (1 Bft)
16.10.2009 03:00 3,2 C 8,3 C 2,9 C 2,6 C 1,4 C 0,0 C 92 % 97 % 0 % 1021,8 hPa 0,0 l/m 5,0 km/h (1 Bft) S 180 0 min 0,0 UV-I 2,0 C -0,0 C 8,5 km/h (2 Bft)
16.10.2009 03:06 3,3 C 8,3 C 2,9 C 2,6 C 1,1 C 0,0 C 92 % 97 % 0 % 1021,2 hPa 0,0 l/m 5,5 km/h (1 Bft) W-SW 247 0 min 0,0 UV-I 2,1 C -0,6 C 5,8 km/h (2 Bft)
16.10.2009 03:07 3,2 C 8,3 C 2,8 C 2,5 C 1,1 C 0,0 C 92 % 96 % 0 % 1021,2 hPa 0,0 l/m 5,5 km/h (1 Bft) W-SW 247 0 min 0,0 UV-I 2,0 C -0,6 C 4,8 km/h (1 Bft)
16.10.2009 03:08 3,2 C 8,3 C 2,8 C 2,5 C 1,1 C 0,0 C 92 % 96 % 0 % 1021,2 hPa 0,0 l/m 5,5 km/h (1 Bft) W-SW 247 0 min 0,0 UV-I 2,0 C -0,6 C 4,8 km/h (1 Bft)
16.10.2009 03:09 3,2 C 8,3 C 2,8 C 2,5 C 1,1 C 0,0 C 92 % 96 % 0 % 1021,2 hPa 0,0 l/m 5,5 km/h (1 Bft) W-SW 247 0 min 0,0 UV-I 2,0 C -0,6 C 4,8 km/h (1 Bft)
16.10.2009 03:10 3,2 C 8,3 C 2,8 C 2,5 C 1,1 C 0,0 C 92 % 96 % 0 % 1021,2 hPa 0,0 l/m 5,5 km/h (1 Bft) W-SW 247 0 min 0,0 UV-I 2,0 C -0,6 C 4,8 km/h (1 Bft)
16.10.2009 03:11 3,2 C 8,3 C 2,8 C 2,5 C 1,1 C 0,0 C 92 % 96 % 0 % 1021,2 hPa 0,0 l/m 5,1 km/h (1 Bft) S 180 0 min 0,0 UV-I 2,0 C -0,4 C 4,5 km/h (1 Bft)
16.10.2009 03:13 3,2 C 8,3 C 2,8 C 2,5 C 1,1 C 0,0 C 92 % 96 % 0 % 1021,2 hPa 0,0 l/m 5,1 km/h (1 Bft) S 180 0 min 0,0 UV-I 2,0 C -0,4 C 4,5 km/h (1 Bft)
16.10.2009 03:15 3,2 C 8,3 C 2,8 C 2,5 C 1,1 C 0,0 C 92 % 96 % 0 % 1021,2 hPa 0,0 l/m 5,1 km/h (1 Bft) S 180 0 min 0,0 UV-I 2,0 C -0,4 C 4,5 km/h (1 Bft)
16.10.2009 03:20 3,2 C 8,3 C 2,8 C 2,5 C 1,1 C 0,0 C 92 % 96 % 0 % 1021,2 hPa 0,0 l/m 5,1 km/h (1 Bft) S 180 0 min 0,0 UV-I 2,0 C -0,4 C 8,5 km/h (2 Bft)
16.10.2009 03:25 3,1 C 8,3 C 2,7 C 2,4 C 1,1 C 0,0 C 92 % 96 % 0 % 1020,9 hPa 0,0 l/m 4,8 km/h (1 Bft) S 180 0 min 0,0 UV-I 1,9 C -0,2 C 6,4 km/h (2 Bft)
16.10.2009 03:30 3,1 C 8,3 C 2,7 C 2,3 C 0,8 C 0,0 C 92 % 96 % 0 % 1020,9 hPa 0,7 l/m 5,5 km/h (1 Bft) S-SW 202 0 min 0,0 UV-I 1,9 C -0,9 C 9,7 km/h (2 Bft)
16.10.2009 03:35 3,0 C 8,3 C 2,7 C 2,2 C 0,7 C 0,0 C 92 % 96 % 0 % 1020,9 hPa 0,0 l/m 5,5 km/h (1 Bft) SW 225 0 min 0,0 UV-I 1,8 C -1,0 C 5,3 km/h (1 Bft)
16.10.2009 03:40 3,1 C 8,3 C 2,6 C 2,3 C 0,7 C 0,0 C 92 % 96 % 0 % 1020,9 hPa 0,0 l/m 5,6 km/h (1 Bft) SW 225 0 min 0,0 UV-I 1,9 C -1,1 C 15,6 km/h (3 Bft)
16.10.2009 03:45 3,1 C 8,3 C 2,7 C 2,2 C 0,3 C 0,0 C 92 % 96 % 0 % 1021,3 hPa 0,0 l/m 6,6 km/h (2 Bft) W-SW 247 0 min 0,0 UV-I 1,9 C -1,9 C 9,0 km/h (2 Bft)
16.10.2009 03:50 3,1 C 8,3 C 2,6 C 2,1 C 0,1 C 0,0 C 92 % 96 % 0 % 1021,3 hPa 0,0 l/m 6,9 km/h (2 Bft) SW 225 0 min 0,0 UV-I 1,9 C -2,3 C 8,2 km/h (2 Bft)
16.10.2009 03:55 3,0 C 8,4 C 2,5 C 2,1 C 0,4 C 0,0 C 92 % 96 % 0 % 1021,3 hPa 0,0 l/m 6,0 km/h (2 Bft) SW 225 0 min 0,0 UV-I 1,8 C -1,6 C 10,1 km/h (2 Bft)
16.10.2009 04:00 2,9 C 8,4 C 2,4 C 2,1 C 0,4 C 0,0 C 92 % 96 % 0 % 1021,3 hPa 0,7 l/m 5,5 km/h (1 Bft) SW 225 0 min 0,0 UV-I 1,7 C -1,4 C 13,2 km/h (3 Bft)
16.10.2009 04:06 2,9 C 8,4 C 2,4 C 2,1 C 0,6 C 0,0 C 92 % 96 % 0 % 1020,7 hPa 0,0 l/m 5,3 km/h (1 Bft) W-SW 247 0 min 0,0 UV-I 1,7 C -1,0 C 7,1 km/h (2 Bft)
16.10.2009 04:07 2,8 C 8,4 C 2,4 C 2,1 C 0,8 C 0,0 C 92 % 96 % 0 % 1020,7 hPa 0,0 l/m 4,3 km/h (1 Bft) SW 225 0 min 0,0 UV-I 1,6 C 0,8 C 5,5 km/h (1 Bft)
16.10.2009 04:10 2,8 C 8,4 C 2,4 C 2,1 C 0,8 C 0,0 C 92 % 96 % 0 % 1020,7 hPa 0,0 l/m 4,3 km/h (1 Bft) SW 225 0 min 0,0 UV-I 1,6 C 0,8 C 5,5 km/h (1 Bft)
16.10.2009 04:15 2,8 C 8,4 C 2,4 C 2,2 C 0,9 C 0,0 C 92 % 96 % 0 % 1020,7 hPa 0,0 l/m 4,0 km/h (1 Bft) W-SW 247 0 min 0,0 UV-I 1,6 C 0,9 C 4,3 km/h (1 Bft)
16.10.2009 04:20 2,8 C 8,3 C 2,3 C 2,3 C 1,2 C 0,0 C 92 % 96 % 0 % 1020,7 hPa 0,0 l/m 3,5 km/h (1 Bft) SW 225 0 min 0,0 UV-I 1,6 C 1,2 C 3,2 km/h (1 Bft)
16.10.2009 04:25 2,9 C 8,3 C 2,4 C 2,3 C 1,2 C 0,0 C 92 % 96 % 0 % 1020,7 hPa 0,0 l/m 3,5 km/h (1 Bft) S 180 0 min 0,0 UV-I 1,7 C 1,2 C 5,6 km/h (1 Bft)
16.10.2009 04:30 2,8 C 8,3 C 2,3 C 2,0 C 0,5 C 0,0 C 92 % 96 % 0 % 1020,7 hPa 0,0 l/m 4,8 km/h (1 Bft) SW 225 0 min 0,0 UV-I 1,6 C -0,9 C 5,1 km/h (1 Bft)
16.10.2009 04:35 2,8 C 8,3 C 2,3 C 2,0 C 0,3 C 0,0 C 92 % 96 % 0 % 1020,7 hPa 0,7 l/m 5,1 km/h (1 Bft) W-SW 247 0 min 0,0 UV-I 1,6 C -1,3 C 5,0 km/h (1 Bft)
16.10.2009 04:40 2,8 C 8,3 C 2,3 C 2,0 C 0,5 C 0,0 C 92 % 96 % 0 % 1020,7 hPa 0,0 l/m 4,7 km/h (1 Bft) SW 225 0 min 0,0 UV-I 1,6 C -0,9 C 6,0 km/h (2 Bft)
16.10.2009 04:45 2,7 C 8,3 C 2,3 C 1,9 C 0,4 C 0,0 C 92 % 97 % 0 % 1020,4 hPa 0,0 l/m 5,0 km/h (1 Bft) W-SW 247 0 min 0,0 UV-I 1,5 C -1,1 C 8,5 km/h (2 Bft)
16.10.2009 04:50 2,7 C 8,3 C 2,3 C 1,9 C 0,2 C 0,0 C 92 % 97 % 0 % 1020,4 hPa 0,0 l/m 5,3 km/h (1 Bft) W-SW 247 0 min 0,0 UV-I 1,5 C -1,5 C 10,9 km/h (2 Bft)
16.10.2009 04:51 2,7 C 8,3 C 2,2 C 1,8 C 0,1 C 0,0 C 92 % 97 % 0 % 1020,4 hPa 0,0 l/m 5,6 km/h (1 Bft) S-SW 202 0 min 0,0 UV-I 1,5 C -1,7 C 4,5 km/h (1 Bft)
16.10.2009 04:55 2,7 C 8,3 C 2,2 C 1,8 C 0,1 C 0,0 C 92 % 97 % 0 % 1020,4 hPa 0,0 l/m 5,6 km/h (1 Bft) S-SW 202 0 min 0,0 UV-I 1,5 C -1,7 C 4,5 km/h (1 Bft)
16.10.2009 05:00 2,7 C 8,3 C 2,3 C 1,8 C 0,1 C 0,0 C 92 % 97 % 0 % 1020,4 hPa 0,0 l/m 5,8 km/h (2 Bft) W-SW 247 0 min 0,0 UV-I 1,5 C -1,8 C 4,3 km/h (1 Bft)
16.10.2009 05:01 2,7 C 8,3 C 2,3 C 1,8 C 0,1 C 0,0 C 92 % 97 % 0 % 1020,4 hPa 0,0 l/m 5,8 km/h (2 Bft) S-SW 202 0 min 0,0 UV-I 1,5 C -1,8 C 5,3 km/h (1 Bft)
16.10.2009 05:07 2,8 C 8,3 C 2,3 C 1,9 C 0,2 C 0,0 C 92 % 97 % 0 % 1020,4 hPa 0,0 l/m 5,8 km/h (2 Bft) W-SW 247 0 min 0,0 UV-I 1,6 C -1,7 C 7,6 km/h (2 Bft)
16.10.2009 05:11 2,8 C 8,3 C 2,4 C 2,0 C 0,4 C 0,0 C 92 % 97 % 0 % 1020,4 hPa 0,0 l/m 5,6 km/h (1 Bft) W-SW 247 0 min 0,0 UV-I 1,6 C -1,4 C 3,5 km/h (1 Bft)
16.10.2009 05:18 2,8 C 8,3 C 2,4 C 2,0 C 0,3 C 0,0 C 92 % 97 % 0 % 1020,4 hPa 0,0 l/m 5,8 km/h (2 Bft) W-SW 247 0 min 0,0 UV-I 1,6 C -1,6 C 6,0 km/h (2 Bft)
16.10.2009 05:25 2,8 C 8,3 C 2,5 C 1,9 C 0,0 C 0,0 C 92 % 97 % 0 % 1019,9 hPa 0,0 l/m 6,8 km/h (2 Bft) S 180 0 min 0,0 UV-I 1,6 C -2,3 C 8,2 km/h (2 Bft)
16.10.2009 05:30 2,8 C 8,3 C 2,4 C 1,8 C -0,1 C 0,0 C 93 % 97 % 0 % 1019,9 hPa 0,0 l/m 6,9 km/h (2 Bft) W-SW 247 0 min 0,0 UV-I 1,8 C -2,5 C 6,0 km/h (2 Bft)
16.10.2009 05:35 2,8 C 8,3 C 2,4 C 2,0 C 0,3 C 0,0 C 92 % 97 % 0 % 1019,9 hPa 0,0 l/m 5,8 km/h (2 Bft) S 180 0 min 0,0 UV-I 1,6 C -1,6 C 3,7 km/h (1 Bft)
16.10.2009 05:40 2,8 C 8,3 C 2,5 C 2,1 C 0,8 C 0,0 C 93 % 97 % 0 % 1019,9 hPa 0,0 l/m 5,0 km/h (1 Bft) S 180 0 min 0,0 UV-I 1,8 C -0,7 C 9,3 km/h (2 Bft)
16.10.2009 05:45 2,8 C 8,3 C 2,5 C 2,0 C 0,4 C 0,0 C 93 % 97 % 0 % 1020,1 hPa 0,0 l/m 5,8 km/h (2 Bft) SW 225 0 min 0,0 UV-I 1,8 C -1,5 C 10,3 km/h (2 Bft)
16.10.2009 05:50 2,8 C 8,3 C 2,5 C 2,0 C 0,4 C 0,0 C 93 % 97 % 0 % 1020,1 hPa 0,0 l/m 6,3 km/h (2 Bft) W 270 0 min 0,0 UV-I 1,8 C -1,7 C 9,2 km/h (2 Bft)
16.10.2009 05:55 2,9 C 8,3 C 2,7 C 2,1 C 0,4 C 0,0 C 93 % 97 % 0 % 1020,1 hPa 0,0 l/m 6,1 km/h (2 Bft) SW 225 0 min 0,0 UV-I 1,9 C -1,6 C 5,8 km/h (2 Bft)
16.10.2009 06:00 2,9 C 8,3 C 2,6 C 2,2 C 0,8 C 0,0 C 93 % 97 % 0 % 1020,1 hPa 0,0 l/m 5,3 km/h (1 Bft) W-SW 247 0 min 0,0 UV-I 1,9 C -0,8 C 4,3 km/h (1 Bft)
16.10.2009 06:10 2,9 C 8,2 C 2,8 C 2,2 C 0,7 C 0,0 C 93 % 97 % 0 % 1019,6 hPa 0,0 l/m 6,0 km/h (2 Bft) SW 225 0 min 0,0 UV-I 1,9 C -1,2 C 8,5 km/h (2 Bft)
16.10.2009 06:15 3,0 C 8,2 C 2,8 C 2,2 C 0,6 C 0,0 C 93 % 97 % 0 % 1019,6 hPa 0,0 l/m 6,6 km/h (2 Bft) W 270 0 min 0,0 UV-I 2,0 C -1,6 C 3,9 km/h (1 Bft)
16.10.2009 06:20 3,1 C 8,2 C 2,9 C 2,3 C 0,8 C 0,0 C 93 % 98 % 0 % 1019,6 hPa 0,7 l/m 6,3 km/h (2 Bft) SW 225 0 min 0,0 UV-I 2,1 C -1,2 C 3,2 km/h (1 Bft)
16.10.2009 06:25 3,1 C 8,2 C 2,8 C 2,5 C 1,2 C 0,0 C 93 % 98 % 0 % 1018,9 hPa 0,0 l/m 5,5 km/h (1 Bft) W-SW 247 0 min 0,0 UV-I 2,1 C -0,4 C 3,9 km/h (1 Bft)
16.10.2009 06:30 3,1 C 8,2 C 2,9 C 2,5 C 1,2 C 0,0 C 93 % 98 % 0 % 1018,9 hPa 0,0 l/m 5,5 km/h (1 Bft) W-SW 247 0 min 0,0 UV-I 2,1 C -0,4 C 8,7 km/h (2 Bft)
16.10.2009 06:35 3,1 C 8,2 C 2,9 C 2,4 C 1,1 C 0,0 C 93 % 97 % 0 % 1018,9 hPa 0,0 l/m 5,6 km/h (1 Bft) S-SW 202 0 min 0,0 UV-I 2,1 C -0,6 C 8,2 km/h (2 Bft)
16.10.2009 06:40 3,1 C 8,2 C 2,9 C 2,5 C 1,4 C 0,0 C 93 % 98 % 0 % 1018,9 hPa 0,0 l/m 5,3 km/h (1 Bft) W-SW 247 0 min 0,0 UV-I 2,1 C -0,1 C 3,4 km/h (1 Bft)
16.10.2009 06:45 3,1 C 8,2 C 3,1 C 2,6 C 1,6 C 0,0 C 93 % 98 % 0 % 1018,9 hPa 0,0 l/m 4,8 km/h (1 Bft) W-SW 247 0 min 0,0 UV-I 2,1 C 0,3 C 7,1 km/h (2 Bft)
16.10.2009 06:50 3,1 C 8,2 C 3,0 C 2,6 C 1,6 C 0,0 C 93 % 98 % 0 % 1018,9 hPa 0,0 l/m 5,0 km/h (1 Bft) S-SW 202 0 min 0,0 UV-I 2,1 C 0,2 C 3,4 km/h (1 Bft)
16.10.2009 06:55 3,1 C 8,2 C 3,1 C 2,6 C 1,5 C 0,0 C 93 % 98 % 0 % 1018,9 hPa 0,0 l/m 5,5 km/h (1 Bft) S 180 0 min 0,0 UV-I 2,1 C -0,1 C 6,6 km/h (2 Bft)
16.10.2009 07:00 3,2 C 8,2 C 3,1 C 2,8 C 1,9 C 0,0 C 93 % 98 % 0 % 1018,9 hPa 0,0 l/m 4,3 km/h (1 Bft) SW 225 0 min 0,0 UV-I 2,2 C 1,9 C 6,9 km/h (2 Bft)
16.10.2009 07:10 3,3 C 8,2 C 3,2 C 2,7 C 1,6 C 0,0 C 93 % 98 % 0 % 1018,4 hPa 0,0 l/m 5,6 km/h (1 Bft) S 180 0 min 0,0 UV-I 2,3 C -0,0 C 9,2 km/h (2 Bft)
16.10.2009 07:15 3,2 C 8,2 C 3,2 C 2,6 C 1,4 C 0,0 C 93 % 98 % 0 % 1018,4 hPa 0,7 l/m 6,0 km/h (2 Bft) S-SW 202 0 min 0,0 UV-I 2,2 C -0,4 C 4,2 km/h (1 Bft)
16.10.2009 07:20 3,2 C 8,2 C 3,2 C 2,5 C 1,2 C 0,0 C 93 % 98 % 0 % 1018,4 hPa 0,0 l/m 6,4 km/h (2 Bft) S 180 0 min 0,0 UV-I 2,2 C -0,8 C 8,0 km/h (2 Bft)
16.10.2009 07:25 3,2 C 8,2 C 3,2 C 2,5 C 1,2 C 0,0 C 93 % 98 % 0 % 1018,7 hPa 0,0 l/m 6,1 km/h (2 Bft) SW 225 0 min 0,0 UV-I 2,2 C -0,7 C 6,0 km/h (2 Bft)
16.10.2009 07:30 3,2 C 8,2 C 3,2 C 2,7 C 1,6 C 0,0 C 93 % 98 % 0 % 1018,7 hPa 0,0 l/m 5,1 km/h (1 Bft) SW 225 0 min 0,0 UV-I 2,2 C 0,2 C 5,8 km/h (2 Bft)
16.10.2009 07:35 3,2 C 8,2 C 3,2 C 2,8 C 1,9 C 0,0 C 93 % 98 % 0 % 1018,7 hPa 0,0 l/m 4,5 km/h (1 Bft) S 180 0 min 0,0 UV-I 2,2 C 1,9 C 2,9 km/h (1 Bft)
16.10.2009 07:40 3,3 C 8,2 C 3,2 C 2,8 C 1,9 C 0,0 C 93 % 98 % 0 % 1018,7 hPa 0,0 l/m 4,5 km/h (1 Bft) SW 225 0 min 0,0 UV-I 2,3 C 1,9 C 5,1 km/h (1 Bft)
16.10.2009 07:45 3,3 C 8,2 C 3,2 C 2,8 C 1,7 C 0,0 C 93 % 98 % 0 % 1018,7 hPa 0,0 l/m 5,1 km/h (1 Bft) SW 225 0 min 0,0 UV-I 2,3 C 0,3 C 9,7 km/h (2 Bft)
16.10.2009 07:50 3,3 C 8,2 C 3,2 C 2,7 C 1,4 C 0,0 C 93 % 98 % 0 % 1018,7 hPa 0,0 l/m 6,1 km/h (2 Bft) W 270 0 min 0,0 UV-I 2,3 C -0,5 C 3,4 km/h (1 Bft)
16.10.2009 07:55 3,4 C 8,2 C 3,2 C 2,8 C 1,6 C 0,0 C 93 % 98 % 0 % 1018,7 hPa 0,0 l/m 5,6 km/h (1 Bft) SW 225 0 min 0,0 UV-I 2,4 C -0,0 C 3,4 km/h (1 Bft)
16.10.2009 08:00 3,3 C 8,2 C 3,1 C 3,0 C 2,3 C 0,0 C 93 % 97 % 0 % 1018,7 hPa 0,0 l/m 3,9 km/h (1 Bft) S 180 0 min 0,0 UV-I 2,3 C 2,3 C 6,1 km/h (2 Bft)
16.10.2009 08:10 3,3 C 8,2 C 3,0 C 2,6 C 1,2 C 0,0 C 92 % 97 % 0 % 1018,1 hPa 0,0 l/m 6,3 km/h (2 Bft) W-SW 247 0 min 0,0 UV-I 2,1 C -0,8 C 11,4 km/h (2 Bft)
16.10.2009 08:15 3,3 C 8,2 C 3,0 C 2,5 C 0,8 C 0,0 C 92 % 97 % 0 % 1018,1 hPa 0,0 l/m 7,2 km/h (2 Bft) W-SW 247 0 min 0,0 UV-I 2,1 C -1,5 C 9,7 km/h (2 Bft)
16.10.2009 08:20 3,3 C 8,2 C 2,9 C 2,4 C 0,7 C 0,0 C 92 % 97 % 0 % 1018,1 hPa 0,0 l/m 7,4 km/h (2 Bft) O-SO 112 0 min 0,0 UV-I 2,1 C -1,7 C 9,2 km/h (2 Bft)
16.10.2009 08:25 3,2 C 8,1 C 2,8 C 2,4 C 0,7 C 0,0 C 91 % 97 % 0 % 1018,7 hPa 0,0 l/m 7,4 km/h (2 Bft) S 180 0 min 0,0 UV-I 1,9 C -1,7 C 11,4 km/h (2 Bft)
16.10.2009 08:30 3,2 C 8,1 C 2,8 C 2,3 C 0,6 C 0,0 C 91 % 97 % 0 % 1018,7 hPa 0,0 l/m 7,4 km/h (2 Bft) W-SW 247 0 min 0,0 UV-I 1,9 C -1,8 C 7,1 km/h (2 Bft)
16.10.2009 08:35 3,2 C 8,1 C 2,8 C 2,4 C 0,9 C 0,0 C 91 % 97 % 0 % 1018,7 hPa 0,0 l/m 6,4 km/h (2 Bft) SW 225 0 min 0,0 UV-I 1,9 C -1,1 C 11,1 km/h (2 Bft)
16.10.2009 08:40 3,2 C 8,1 C 2,8 C 2,5 C 1,1 C 0,0 C 91 % 97 % 0 % 1018,7 hPa 0,0 l/m 5,8 km/h (2 Bft) S 180 0 min 0,0 UV-I 1,9 C -0,7 C 5,6 km/h (1 Bft)
16.10.2009 08:45 3,2 C 8,1 C 2,8 C 2,4 C 0,8 C 0,0 C 91 % 97 % 0 % 1018,2 hPa 0,0 l/m 6,4 km/h (2 Bft) S 180 0 min 0,0 UV-I 1,9 C -1,3 C 12,6 km/h (3 Bft)
16.10.2009 08:50 3,3 C 8,1 C 2,7 C 2,5 C 0,8 C 0,0 C 91 % 97 % 0 % 1018,2 hPa 0,0 l/m 6,8 km/h (2 Bft) S 180 0 min 0,0 UV-I 2,0 C -1,4 C 10,3 km/h (2 Bft)
16.10.2009 08:55 3,3 C 8,1 C 2,7 C 2,6 C 0,4 C 0,0 C 90 % 97 % 0 % 1018,2 hPa 0,0 l/m 7,9 km/h (2 Bft) SW 225 0 min 0,0 UV-I 1,8 C -2,2 C 14,6 km/h (3 Bft)
16.10.2009 09:00 3,3 C 8,1 C 2,7 C 2,6 C 0,5 C 0,0 C 90 % 97 % 0 % 1018,2 hPa 0,0 l/m 7,7 km/h (2 Bft) W-SW 247 0 min 0,0 UV-I 1,8 C -2,1 C 6,8 km/h (2 Bft)
16.10.2009 09:10 3,2 C 8,1 C 2,7 C 2,5 C 1,1 C 0,0 C 90 % 97 % 0 % 1018,2 hPa 0,0 l/m 6,6 km/h (2 Bft) SW 225 0 min 0,0 UV-I 1,7 C -1,0 C 17,2 km/h (3 Bft)
16.10.2009 09:15 3,2 C 8,1 C 2,9 C 2,5 C 1,2 C 0,0 C 90 % 97 % 0 % 1018,2 hPa 0,0 l/m 6,8 km/h (2 Bft) W-SW 247 0 min 0,0 UV-I 1,7 C -0,9 C 12,1 km/h (2 Bft)
16.10.2009 09:20 3,3 C 8,0 C 2,8 C 2,7 C 1,6 C 0,0 C 90 % 97 % 0 % 1018,2 hPa 0,0 l/m 5,8 km/h (2 Bft) O-SO 112 0 min 0,0 UV-I 1,8 C -0,1 C 4,0 km/h (1 Bft)
16.10.2009 09:25 3,3 C 8,1 C 2,7 C 2,8 C 1,7 C 0,0 C 90 % 97 % 0 % 1018,2 hPa 0,0 l/m 5,6 km/h (1 Bft) SW 225 0 min 0,0 UV-I 1,8 C 0,1 C 6,3 km/h (2 Bft)
16.10.2009 09:30 3,2 C 8,0 C 2,8 C 2,7 C 1,6 C 0,0 C 90 % 97 % 0 % 1018,2 hPa 0,0 l/m 5,6 km/h (1 Bft) S-SO 157 0 min 0,0 UV-I 1,7 C -0,0 C 4,0 km/h (1 Bft)
16.10.2009 09:35 3,3 C 7,9 C 2,8 C 2,7 C 1,6 C 0,0 C 90 % 97 % 0 % 1018,2 hPa 0,0 l/m 5,5 km/h (1 Bft) SW 225 0 min 0,0 UV-I 1,8 C 0,0 C 11,3 km/h (2 Bft)
16.10.2009 09:40 3,3 C 7,9 C 2,7 C 2,9 C 2,1 C 0,0 C 89 % 97 % 0 % 1018,2 hPa 0,0 l/m 4,3 km/h (1 Bft) S-SW 202 0 min 0,0 UV-I 1,7 C 2,1 C 5,5 km/h (1 Bft)
16.10.2009 09:45 3,2 C 7,9 C 2,8 C 2,8 C 1,9 C 0,0 C 89 % 97 % 0 % 1017,0 hPa 0,0 l/m 4,7 km/h (1 Bft) SW 225 0 min 0,0 UV-I 1,6 C 0,7 C 9,8 km/h (2 Bft)
16.10.2009 09:50 3,3 C 8,0 C 2,8 C 2,9 C 2,0 C 0,0 C 89 % 97 % 0 % 1017,0 hPa 0,0 l/m 4,8 km/h (1 Bft) NW 315 0 min 0,0 UV-I 1,7 C 0,8 C 1,8 km/h (1 Bft)
16.10.2009 09:55 3,2 C 7,9 C 2,8 C 2,8 C 2,0 C 0,0 C 89 % 97 % 0 % 1017,0 hPa 0,0 l/m 4,8 km/h (1 Bft) SW 225 0 min 0,0 UV-I 1,6 C 0,8 C 7,1 km/h (2 Bft)
16.10.2009 10:00 3,3 C 7,9 C 2,8 C 3,1 C 2,7 C 0,0 C 88 % 97 % 0 % 1017,0 hPa 0,0 l/m 3,5 km/h (1 Bft) O-SO 112 0 min 0,0 UV-I 1,5 C 2,7 C 1,6 km/h (1 Bft)
16.10.2009 10:10 3,3 C 7,9 C 2,7 C 3,2 C 3,1 C 0,0 C 88 % 97 % 0 % 1016,8 hPa 0,0 l/m 2,6 km/h (1 Bft) N 360 0 min 0,0 UV-I 1,5 C 3,1 C 1,8 km/h (1 Bft)
16.10.2009 10:15 3,2 C 7,8 C 2,8 C 3,2 C 3,1 C 0,0 C 87 % 97 % 0 % 1016,8 hPa 0,0 l/m 2,7 km/h (1 Bft) O-SO 112 0 min 0,0 UV-I 1,2 C 3,1 C 9,5 km/h (2 Bft)
16.10.2009 10:20 3,3 C 7,8 C 2,7 C 3,3 C 3,2 C 0,0 C 87 % 97 % 0 % 1016,8 hPa 0,0 l/m 2,6 km/h (1 Bft) W-SW 247 0 min 0,0 UV-I 1,3 C 3,2 C 1,8 km/h (1 Bft)
16.10.2009 10:25 3,4 C 7,8 C 2,7 C 3,3 C 3,1 C 0,0 C 87 % 97 % 0 % 1015,9 hPa 0,0 l/m 3,1 km/h (1 Bft) SO 135 0 min 0,0 UV-I 1,4 C 3,1 C 2,9 km/h (1 Bft)
16.10.2009 10:30 3,5 C 7,8 C 2,8 C 3,5 C 3,5 C 0,0 C 87 % 96 % 0 % 1015,9 hPa 0,0 l/m 2,4 km/h (1 Bft) S 180 0 min 0,0 UV-I 1,5 C 3,5 C 5,1 km/h (1 Bft)
16.10.2009 10:35 3,5 C 7,8 C 2,8 C 3,6 C 3,6 C 0,1 C 87 % 96 % 3 % 1015,9 hPa 0,0 l/m 1,9 km/h (1 Bft) S-SO 157 0 min 0,0 UV-I 1,5 C 3,6 C 3,2 km/h (1 Bft)
16.10.2009 10:40 3,5 C 7,8 C 2,9 C 3,7 C 3,7 C 0,2 C 87 % 97 % 5 % 1015,9 hPa 0,0 l/m 2,4 km/h (1 Bft) SO 135 0 min 0,1 UV-I 1,5 C 3,7 C 5,1 km/h (1 Bft)
16.10.2009 10:45 3,5 C 7,8 C 2,9 C 3,7 C 3,7 C 0,2 C 87 % 97 % 5 % 1015,2 hPa 0,0 l/m 2,9 km/h (1 Bft) W 270 0 min 0,1 UV-I 1,5 C 3,7 C 5,0 km/h (1 Bft)
16.10.2009 10:50 3,6 C 7,9 C 3,1 C 3,5 C 3,2 C 0,0 C 87 % 97 % 0 % 1015,2 hPa 0,0 l/m 3,9 km/h (1 Bft) S 180 0 min 0,0 UV-I 1,6 C 3,2 C 5,0 km/h (1 Bft)
16.10.2009 10:55 3,7 C 7,8 C 3,1 C 3,3 C 2,6 C 0,0 C 87 % 97 % 0 % 1015,2 hPa 0,0 l/m 5,3 km/h (1 Bft) S-SO 157 0 min 0,0 UV-I 1,7 C 1,2 C 13,7 km/h (3 Bft)
16.10.2009 11:00 3,6 C 7,8 C 3,1 C 3,3 C 1,7 C 0,0 C 87 % 97 % 0 % 1015,2 hPa 0,0 l/m 8,2 km/h (2 Bft) S 180 0 min 0,0 UV-I 1,6 C -0,8 C 11,6 km/h (2 Bft)
16.10.2009 11:10 3,6 C 7,9 C 3,1 C 3,1 C 1,1 C 0,0 C 87 % 97 % 0 % 1015,2 hPa 0,0 l/m 9,0 km/h (2 Bft) SW 225 0 min 0,0 UV-I 1,6 C -1,7 C 24,0 km/h (4 Bft)
16.10.2009 11:15 3,7 C 8,0 C 3,1 C 2,8 C 1,1 C 0,0 C 88 % 97 % 0 % 1015,2 hPa 0,0 l/m 7,9 km/h (2 Bft) S-SW 202 0 min 0,0 UV-I 1,9 C -1,4 C 3,9 km/h (1 Bft)
16.10.2009 11:20 3,6 C 8,1 C 3,1 C 2,8 C 1,3 C 0,0 C 88 % 97 % 0 % 1015,2 hPa 0,0 l/m 6,8 km/h (2 Bft) W 270 0 min 0,1 UV-I 1,8 C -0,8 C 10,1 km/h (2 Bft)
16.10.2009 11:25 3,6 C 8,1 C 3,1 C 3,0 C 1,9 C 0,0 C 88 % 97 % 0 % 1014,9 hPa 0,0 l/m 5,1 km/h (1 Bft) O-NO 67 0 min 0,1 UV-I 1,8 C 0,5 C 4,0 km/h (1 Bft)
16.10.2009 11:30 3,5 C 8,1 C 3,0 C 3,4 C 3,2 C 0,0 C 89 % 97 % 0 % 1014,9 hPa 0,0 l/m 2,1 km/h (1 Bft) O 90 0 min 0,2 UV-I 1,9 C 3,2 C 0,0 km/h (0 Bft)
16.10.2009 11:35 3,5 C 8,1 C 3,1 C 3,5 C 3,4 C 0,0 C 89 % 97 % 0 % 1014,9 hPa 0,0 l/m 1,4 km/h (1 Bft) SW 225 0 min 0,2 UV-I 1,9 C 3,4 C 2,9 km/h (1 Bft)
16.10.2009 11:40 3,6 C 8,2 C 3,3 C 3,7 C 3,7 C 0,1 C 90 % 97 % 3 % 1014,9 hPa 0,0 l/m 1,1 km/h (1 Bft) SO 135 0 min 0,2 UV-I 2,1 C 3,7 C 4,7 km/h (1 Bft)
16.10.2009 11:45 3,6 C 8,2 C 3,2 C 3,7 C 3,7 C 0,1 C 90 % 97 % 3 % 1014,9 hPa 0,0 l/m 1,1 km/h (1 Bft) SO 135 0 min 0,2 UV-I 2,1 C 3,7 C 4,5 km/h (1 Bft)
16.10.2009 11:50 3,6 C 8,2 C 3,3 C 3,7 C 3,7 C 0,1 C 90 % 97 % 3 % 1014,9 hPa 0,0 l/m 1,3 km/h (1 Bft) S-SO 157 0 min 0,1 UV-I 2,1 C 3,7 C 2,4 km/h (1 Bft)
16.10.2009 11:55 3,6 C 8,2 C 3,3 C 3,6 C 3,6 C 0,0 C 90 % 97 % 0 % 1014,9 hPa 0,0 l/m 1,6 km/h (1 Bft) SW 225 0 min 0,1 UV-I 2,1 C 3,6 C 6,4 km/h (2 Bft)
16.10.2009 12:00 3,7 C 8,2 C 3,4 C 3,7 C 3,6 C 0,0 C 91 % 97 % 0 % 1014,9 hPa 0,7 l/m 1,9 km/h (1 Bft) S-SO 157 0 min 0,2 UV-I 2,4 C 3,6 C 5,0 km/h (1 Bft)
16.10.2009 12:10 3,6 C 8,2 C 3,5 C 3,7 C 3,7 C 0,1 C 91 % 97 % 3 % 1013,8 hPa 0,0 l/m 2,6 km/h (1 Bft) S-SW 202 0 min 0,2 UV-I 2,3 C 3,7 C 6,1 km/h (2 Bft)
16.10.2009 12:15 3,6 C 8,2 C 3,5 C 3,7 C 3,7 C 0,1 C 91 % 97 % 3 % 1013,8 hPa 0,0 l/m 2,4 km/h (1 Bft) S-SO 157 0 min 0,2 UV-I 2,3 C 3,7 C 2,4 km/h (1 Bft)
16.10.2009 12:20 3,6 C 8,2 C 3,4 C 3,6 C 3,6 C 0,0 C 92 % 97 % 0 % 1013,8 hPa 0,7 l/m 2,4 km/h (1 Bft) S-SO 157 0 min 0,1 UV-I 2,4 C 3,6 C 3,2 km/h (1 Bft)
16.10.2009 12:25 3,7 C 8,2 C 3,4 C 3,7 C 3,6 C 0,0 C 92 % 97 % 0 % 1013,0 hPa 0,0 l/m 2,6 km/h (1 Bft) S 180 0 min 0,1 UV-I 2,5 C 3,6 C 4,8 km/h (1 Bft)
16.10.2009 12:30 3,6 C 8,2 C 3,5 C 3,6 C 3,6 C 0,0 C 92 % 97 % 0 % 1013,0 hPa 0,0 l/m 2,9 km/h (1 Bft) W-NW 292 0 min 0,1 UV-I 2,4 C 3,6 C 3,1 km/h (1 Bft)
16.10.2009 12:35 3,7 C 8,2 C 3,5 C 3,7 C 3,7 C 0,0 C 92 % 97 % 0 % 1013,0 hPa 0,0 l/m 2,7 km/h (1 Bft) W-SW 247 0 min 0,1 UV-I 2,5 C 3,7 C 6,1 km/h (2 Bft)
16.10.2009 12:40 3,6 C 8,2 C 3,5 C 3,7 C 3,7 C 0,1 C 92 % 97 % 3 % 1013,0 hPa 0,0 l/m 2,7 km/h (1 Bft) N-NO 22 0 min 0,2 UV-I 2,4 C 3,7 C 4,3 km/h (1 Bft)
16.10.2009 12:45 3,7 C 8,2 C 3,5 C 3,5 C 3,2 C 0,0 C 92 % 97 % 0 % 1012,9 hPa 0,0 l/m 3,9 km/h (1 Bft) N-NO 22 0 min 0,2 UV-I 2,5 C 3,2 C 13,4 km/h (3 Bft)
16.10.2009 12:50 3,7 C 8,2 C 3,6 C 3,5 C 3,0 C 0,0 C 92 % 97 % 0 % 1012,9 hPa 0,7 l/m 4,5 km/h (1 Bft) O-SO 112 0 min 0,1 UV-I 2,5 C 3,0 C 3,2 km/h (1 Bft)
16.10.2009 12:55 3,6 C 8,2 C 3,6 C 3,4 C 3,1 C 0,0 C 92 % 97 % 0 % 1012,9 hPa 0,0 l/m 4,0 km/h (1 Bft) SW 225 0 min 0,1 UV-I 2,4 C 3,1 C 3,2 km/h (1 Bft)
16.10.2009 13:00 3,7 C 8,2 C 3,6 C 3,3 C 2,4 C 0,0 C 92 % 97 % 0 % 1012,9 hPa 0,0 l/m 5,5 km/h (1 Bft) S 180 0 min 0,0 UV-I 2,5 C 0,9 C 8,0 km/h (2 Bft)
16.10.2009 13:10 3,7 C 8,2 C 3,6 C 3,4 C 2,7 C 0,0 C 93 % 97 % 0 % 1012,4 hPa 0,0 l/m 4,8 km/h (1 Bft) S-SO 157 0 min 0,1 UV-I 2,7 C 1,6 C 8,0 km/h (2 Bft)
16.10.2009 13:15 3,8 C 8,2 C 3,6 C 3,3 C 2,4 C 0,0 C 93 % 97 % 0 % 1012,4 hPa 0,7 l/m 5,1 km/h (1 Bft) S-SW 202 0 min 0,1 UV-I 2,8 C 1,1 C 6,8 km/h (2 Bft)
16.10.2009 13:20 3,8 C 8,2 C 3,7 C 3,4 C 2,6 C 0,0 C 93 % 98 % 0 % 1012,4 hPa 0,0 l/m 4,7 km/h (1 Bft) SW 225 0 min 0,1 UV-I 2,8 C 1,5 C 5,8 km/h (2 Bft)
16.10.2009 13:25 3,9 C 8,2 C 3,6 C 3,6 C 3,1 C 0,0 C 93 % 98 % 0 % 1012,1 hPa 0,0 l/m 4,2 km/h (1 Bft) W-SW 247 0 min 0,1 UV-I 2,9 C 3,1 C 12,9 km/h (3 Bft)
16.10.2009 13:30 3,8 C 8,2 C 3,7 C 3,3 C 2,4 C 0,0 C 93 % 98 % 0 % 1012,1 hPa 0,0 l/m 5,6 km/h (1 Bft) SW 225 0 min 0,1 UV-I 2,8 C 0,9 C 10,8 km/h (2 Bft)
16.10.2009 13:35 3,9 C 8,2 C 3,9 C 3,3 C 2,0 C 0,0 C 93 % 98 % 0 % 1012,1 hPa 0,0 l/m 7,4 km/h (2 Bft) SO 135 0 min 0,1 UV-I 2,9 C -0,2 C 13,2 km/h (3 Bft)
16.10.2009 13:40 3,9 C 8,2 C 3,9 C 3,3 C 2,2 C 0,0 C 93 % 98 % 0 % 1012,1 hPa 0,0 l/m 7,2 km/h (2 Bft) S-SO 157 0 min 0,1 UV-I 2,9 C 0,1 C 2,6 km/h (1 Bft)
16.10.2009 13:45 4,0 C 8,2 C 3,9 C 3,5 C 2,4 C 0,0 C 93 % 98 % 0 % 1011,8 hPa 0,7 l/m 6,9 km/h (2 Bft) SO 135 0 min 0,1 UV-I 3,0 C 0,4 C 8,0 km/h (2 Bft)
16.10.2009 13:50 4,0 C 8,2 C 3,9 C 3,5 C 2,5 C 0,0 C 93 % 98 % 0 % 1011,8 hPa 0,0 l/m 6,6 km/h (2 Bft) W-SW 247 0 min 0,0 UV-I 3,0 C 0,6 C 4,8 km/h (1 Bft)
16.10.2009 13:55 4,0 C 8,2 C 4,0 C 3,6 C 2,9 C 0,0 C 93 % 98 % 0 % 1011,8 hPa 0,0 l/m 5,8 km/h (2 Bft) O-SO 112 0 min 0,0 UV-I 3,0 C 1,4 C 10,0 km/h (2 Bft)
16.10.2009 14:00 4,0 C 8,2 C 4,0 C 3,8 C 3,4 C 0,0 C 94 % 98 % 0 % 1011,8 hPa 0,0 l/m 4,3 km/h (1 Bft) SW 225 0 min 0,0 UV-I 3,1 C 3,4 C 7,4 km/h (2 Bft)
16.10.2009 14:10 4,2 C 8,2 C 4,2 C 3,9 C 3,3 C 0,0 C 94 % 98 % 0 % 1011,4 hPa 0,0 l/m 5,8 km/h (2 Bft) SW 225 0 min 0,0 UV-I 3,3 C 1,8 C 7,1 km/h (2 Bft)
16.10.2009 14:15 4,4 C 8,2 C 4,4 C 4,0 C 3,1 C 0,0 C 94 % 98 % 0 % 1011,4 hPa 0,0 l/m 7,1 km/h (2 Bft) S-SW 202 0 min 0,0 UV-I 3,5 C 1,2 C 16,3 km/h (3 Bft)
16.10.2009 14:20 4,4 C 8,2 C 4,7 C 4,2 C 3,0 C 0,0 C 94 % 99 % 0 % 1011,4 hPa 0,0 l/m 9,2 km/h (2 Bft) S 180 0 min 0,0 UV-I 3,5 C 0,5 C 14,2 km/h (3 Bft)
16.10.2009 14:25 4,6 C 8,2 C 4,7 C 4,1 C 3,0 C 0,0 C 94 % 99 % 0 % 1011,2 hPa 0,0 l/m 9,7 km/h (2 Bft) S 180 0 min 0,0 UV-I 3,7 C 0,3 C 12,1 km/h (2 Bft)
16.10.2009 14:30 4,7 C 8,2 C 4,9 C 4,4 C 3,3 C 0,0 C 94 % 99 % 0 % 1011,2 hPa 0,7 l/m 8,5 km/h (2 Bft) S-SW 202 0 min 0,0 UV-I 3,8 C 1,0 C 14,0 km/h (3 Bft)
16.10.2009 14:35 4,9 C 8,3 C 5,1 C 4,6 C 3,9 C 0,0 C 95 % 99 % 0 % 1011,2 hPa 0,0 l/m 7,1 km/h (2 Bft) S-SO 157 0 min 0,0 UV-I 4,2 C 2,1 C 6,9 km/h (2 Bft)
16.10.2009 14:40 5,2 C 8,3 C 5,4 C 5,1 C 4,9 C 0,0 C 95 % 99 % 0 % 1011,2 hPa 0,0 l/m 6,8 km/h (2 Bft) SW 225 0 min 0,4 UV-I 4,5 C 3,4 C 4,2 km/h (1 Bft)
16.10.2009 14:45 5,6 C 8,3 C 5,9 C 6,4 C 6,4 C 0,8 C 95 % 99 % 21 % 1010,6 hPa 0,0 l/m 6,4 km/h (2 Bft) SW 225 0 min 0,4 UV-I 4,9 C 5,2 C 6,4 km/h (2 Bft)
16.10.2009 14:50 5,9 C 8,2 C 6,4 C 8,1 C 8,1 C 2,2 C 95 % 99 % 58 % 1010,6 hPa 0,0 l/m 6,6 km/h (2 Bft) W-SW 247 0 min 0,4 UV-I 5,2 C 7,1 C 5,3 km/h (1 Bft)
16.10.2009 14:55 6,0 C 8,2 C 6,7 C 8,6 C 8,6 C 2,6 C 95 % 99 % 68 % 1010,6 hPa 0,0 l/m 6,6 km/h (2 Bft) SW 225 0 min 0,4 UV-I 5,3 C 7,7 C 8,2 km/h (2 Bft)
16.10.2009 15:00 6,1 C 8,2 C 6,7 C 8,2 C 8,2 C 2,1 C 95 % 99 % 55 % 1010,6 hPa 0,0 l/m 6,8 km/h (2 Bft) W-SW 247 0 min 0,4 UV-I 5,4 C 7,2 C 10,8 km/h (2 Bft)
16.10.2009 15:10 6,5 C 8,2 C 7,9 C 10,2 C 10,2 C 3,7 C 95 % 99 % 97 % 1010,4 hPa 0,0 l/m 5,3 km/h (1 Bft) W 270 10 min 0,4 UV-I 5,8 C 10,2 C 6,8 km/h (2 Bft)
16.10.2009 15:15 6,7 C 8,2 C 8,3 C 10,8 C 10,8 C 4,1 C 95 % 99 % 100 % 1010,4 hPa 0,0 l/m 5,1 km/h (1 Bft) SW 225 5 min 0,4 UV-I 6,0 C 10,8 C 13,7 km/h (3 Bft)
16.10.2009 15:20 6,7 C 8,2 C 8,3 C 10,1 C 10,1 C 3,4 C 95 % 99 % 89 % 1010,4 hPa 0,0 l/m 6,9 km/h (2 Bft) W-SW 247 5 min 0,3 UV-I 6,0 C 10,1 C 14,2 km/h (3 Bft)
16.10.2009 15:25 6,7 C 8,2 C 7,9 C 9,9 C 9,4 C 3,2 C 95 % 99 % 84 % 1010,2 hPa 0,0 l/m 7,7 km/h (2 Bft) S-SO 157 0 min 0,3 UV-I 6,0 C 8,4 C 3,2 km/h (1 Bft)
16.10.2009 15:30 6,6 C 8,2 C 7,7 C 8,5 C 8,5 C 1,9 C 94 % 99 % 50 % 1010,2 hPa 0,0 l/m 7,6 km/h (2 Bft) W-SW 247 0 min 0,1 UV-I 5,7 C 7,3 C 9,5 km/h (2 Bft)
16.10.2009 15:35 6,9 C 8,2 C 7,5 C 8,0 C 8,0 C 1,1 C 94 % 99 % 29 % 1010,2 hPa 0,0 l/m 7,1 km/h (2 Bft) NW 315 0 min 0,1 UV-I 6,0 C 6,9 C 15,0 km/h (3 Bft)
16.10.2009 15:40 6,9 C 8,2 C 7,3 C 7,4 C 7,4 C 0,5 C 94 % 99 % 13 % 1010,2 hPa 0,0 l/m 7,1 km/h (2 Bft) W-SW 247 0 min 0,0 UV-I 6,0 C 6,2 C 12,2 km/h (2 Bft)
16.10.2009 15:45 6,8 C 8,2 C 7,3 C 7,5 C 6,9 C 0,7 C 94 % 99 % 18 % 1010,2 hPa 0,0 l/m 8,0 km/h (2 Bft) SW 225 0 min 0,0 UV-I 5,9 C 5,4 C 10,9 km/h (2 Bft)
16.10.2009 15:50 6,9 C 8,1 C 7,2 C 7,3 C 6,7 C 0,4 C 94 % 98 % 11 % 1010,2 hPa 0,0 l/m 9,0 km/h (2 Bft) S 180 0 min 0,0 UV-I 6,0 C 4,9 C 11,7 km/h (2 Bft)
16.10.2009 15:55 6,8 C 8,2 C 7,2 C 7,0 C 6,4 C 0,2 C 94 % 98 % 5 % 1010,2 hPa 0,0 l/m 9,0 km/h (2 Bft) SW 225 0 min 0,0 UV-I 5,9 C 4,5 C 11,3 km/h (2 Bft)
16.10.2009 16:00 6,8 C 8,2 C 7,3 C 6,8 C 6,2 C 0,0 C 94 % 98 % 0 % 1010,2 hPa 0,7 l/m 8,4 km/h (2 Bft) W-SW 247 0 min 0,0 UV-I 5,9 C 4,4 C 7,9 km/h (2 Bft)
16.10.2009 16:10 6,9 C 8,2 C 7,3 C 6,7 C 6,2 C 0,0 C 94 % 98 % 0 % 1009,9 hPa 0,0 l/m 8,4 km/h (2 Bft) S 180 0 min 0,0 UV-I 6,0 C 4,4 C 14,8 km/h (3 Bft)
16.10.2009 16:15 6,9 C 8,2 C 7,2 C 6,7 C 6,2 C 0,0 C 94 % 98 % 0 % 1009,9 hPa 0,0 l/m 8,5 km/h (2 Bft) SW 225 0 min 0,0 UV-I 6,0 C 4,4 C 10,9 km/h (2 Bft)
16.10.2009 16:20 6,8 C 8,2 C 7,1 C 6,6 C 6,2 C 0,0 C 94 % 98 % 0 % 1009,9 hPa 0,0 l/m 7,4 km/h (2 Bft) S 180 0 min 0,0 UV-I 5,9 C 4,7 C 6,9 km/h (2 Bft)
16.10.2009 16:25 6,8 C 8,3 C 7,1 C 6,7 C 6,5 C 0,0 C 94 % 98 % 0 % 1009,6 hPa 0,0 l/m 6,3 km/h (2 Bft) W-SW 247 0 min 0,0 UV-I 5,9 C 5,4 C 5,5 km/h (1 Bft)
16.10.2009 16:30 6,9 C 8,5 C 7,1 C 6,8 C 6,6 C 0,0 C 94 % 98 % 0 % 1009,6 hPa 0,0 l/m 5,6 km/h (1 Bft) W-SW 247 0 min 0,0 UV-I 6,0 C 5,7 C 7,6 km/h (2 Bft)
16.10.2009 16:35 6,8 C 8,5 C 7,1 C 6,7 C 6,6 C 0,0 C 94 % 98 % 0 % 1009,6 hPa 0,0 l/m 5,5 km/h (1 Bft) W-SW 247 0 min 0,0 UV-I 5,9 C 5,7 C 10,9 km/h (2 Bft)
16.10.2009 16:40 6,9 C 8,5 C 7,1 C 6,8 C 5,9 C 0,0 C 94 % 98 % 0 % 1009,6 hPa 0,7 l/m 7,9 km/h (2 Bft) W-SW 247 0 min 0,0 UV-I 6,0 C 4,2 C 11,9 km/h (2 Bft)
16.10.2009 16:45 6,8 C 8,5 C 7,1 C 6,6 C 5,8 C 0,0 C 94 % 98 % 0 % 1009,6 hPa 0,0 l/m 7,9 km/h (2 Bft) S-SO 157 0 min 0,0 UV-I 5,9 C 4,1 C 9,0 km/h (2 Bft)
16.10.2009 16:50 6,8 C 8,5 C 6,9 C 6,6 C 6,3 C 0,0 C 94 % 98 % 0 % 1009,6 hPa 0,7 l/m 6,0 km/h (2 Bft) S 180 0 min 0,0 UV-I 5,9 C 5,2 C 4,5 km/h (1 Bft)
16.10.2009 16:55 6,8 C 8,5 C 6,9 C 6,6 C 6,3 C 0,0 C 94 % 98 % 0 % 1009,6 hPa 0,0 l/m 6,0 km/h (2 Bft) W 270 0 min 0,0 UV-I 5,9 C 5,2 C 10,9 km/h (2 Bft)
16.10.2009 17:00 6,8 C 8,6 C 6,8 C 6,7 C 5,7 C 0,0 C 94 % 98 % 0 % 1009,6 hPa 0,7 l/m 7,7 km/h (2 Bft) W-SW 247 0 min 0,0 UV-I 5,9 C 4,0 C 8,4 km/h (2 Bft)
16.10.2009 17:10 6,8 C 8,6 C 6,9 C 6,5 C 5,4 C 0,0 C 94 % 98 % 0 % 1009,6 hPa 0,0 l/m 8,5 km/h (2 Bft) W-SW 247 0 min 0,0 UV-I 5,9 C 3,5 C 10,5 km/h (2 Bft)
16.10.2009 17:15 6,8 C 8,6 C 6,8 C 6,5 C 5,5 C 0,0 C 94 % 98 % 0 % 1009,6 hPa 0,0 l/m 7,9 km/h (2 Bft) W-SW 247 0 min 0,0 UV-I 5,9 C 3,7 C 11,1 km/h (2 Bft)
16.10.2009 17:20 6,8 C 8,6 C 6,9 C 6,5 C 5,8 C 0,0 C 94 % 98 % 0 % 1009,6 hPa 0,0 l/m 6,8 km/h (2 Bft) W-SW 247 0 min 0,0 UV-I 5,9 C 4,4 C 4,8 km/h (1 Bft)
16.10.2009 17:25 6,8 C 8,6 C 6,8 C 6,5 C 5,9 C 0,0 C 94 % 98 % 0 % 1009,4 hPa 0,7 l/m 6,3 km/h (2 Bft) S 180 0 min 0,0 UV-I 5,9 C 4,7 C 11,4 km/h (2 Bft)
16.10.2009 17:30 6,7 C 8,6 C 6,8 C 6,4 C 5,8 C 0,0 C 94 % 98 % 0 % 1009,4 hPa 0,0 l/m 6,6 km/h (2 Bft) S 180 0 min 0,0 UV-I 5,8 C 4,5 C 6,6 km/h (2 Bft)
16.10.2009 17:35 6,8 C 8,6 C 6,8 C 6,6 C 5,5 C 0,0 C 94 % 98 % 0 % 1009,4 hPa 0,0 l/m 7,7 km/h (2 Bft) W-SW 247 0 min 0,0 UV-I 5,9 C 3,8 C 11,7 km/h (2 Bft)
16.10.2009 17:40 6,8 C 8,6 C 6,8 C 6,5 C 5,4 C 0,0 C 94 % 98 % 0 % 1009,4 hPa 0,0 l/m 8,0 km/h (2 Bft) SW 225 0 min 0,0 UV-I 5,9 C 3,6 C 7,9 km/h (2 Bft)
16.10.2009 17:45 6,8 C 8,6 C 6,8 C 6,3 C 5,4 C 0,0 C 94 % 98 % 0 % 1010,1 hPa 0,0 l/m 8,4 km/h (2 Bft) S-SW 202 0 min 0,0 UV-I 5,9 C 3,5 C 8,9 km/h (2 Bft)
16.10.2009 17:50 6,8 C 8,6 C 6,7 C 6,3 C 5,4 C 0,0 C 94 % 98 % 0 % 1010,1 hPa 0,0 l/m 8,5 km/h (2 Bft) SW 225 0 min 0,0 UV-I 5,9 C 3,5 C 20,0 km/h (4 Bft)
16.10.2009 17:55 6,8 C 8,7 C 6,7 C 6,5 C 5,3 C 0,0 C 94 % 98 % 0 % 1010,1 hPa 0,0 l/m 8,9 km/h (2 Bft) W-SW 247 0 min 0,0 UV-I 5,9 C 3,3 C 10,1 km/h (2 Bft)
16.10.2009 18:00 6,7 C 8,7 C 6,7 C 6,4 C 5,2 C 0,0 C 94 % 98 % 0 % 1010,1 hPa 0,7 l/m 8,9 km/h (2 Bft) O-SO 112 0 min 0,0 UV-I 5,8 C 3,1 C 7,6 km/h (2 Bft)
16.10.2009 18:06 6,7 C 8,7 C 6,7 C 6,4 C 5,1 C 0,0 C 94 % 98 % 0 % 1009,6 hPa 0,0 l/m 8,7 km/h (2 Bft) W-SW 247 0 min 0,0 UV-I 5,8 C 3,1 C 17,1 km/h (3 Bft)
16.10.2009 18:07 6,7 C 8,7 C 6,6 C 6,2 C 5,3 C 0,0 C 94 % 98 % 0 % 1009,6 hPa 0,0 l/m 7,6 km/h (2 Bft) S 180 0 min 0,0 UV-I 5,8 C 3,6 C 12,7 km/h (3 Bft)
16.10.2009 18:10 6,7 C 8,7 C 6,6 C 6,2 C 5,3 C 0,0 C 94 % 98 % 0 % 1009,6 hPa 0,0 l/m 7,6 km/h (2 Bft) S 180 0 min 0,0 UV-I 5,8 C 3,6 C 12,7 km/h (3 Bft)
16.10.2009 18:15 6,7 C 8,7 C 6,6 C 6,4 C 5,1 C 0,0 C 94 % 98 % 0 % 1009,6 hPa 0,0 l/m 8,4 km/h (2 Bft) W-SW 247 0 min 0,0 UV-I 5,8 C 3,1 C 17,2 km/h (3 Bft)
16.10.2009 18:20 6,7 C 8,7 C 6,7 C 6,3 C 4,5 C 0,0 C 94 % 98 % 0 % 1009,6 hPa 0,0 l/m 11,4 km/h (2 Bft) SW 225 0 min 0,0 UV-I 5,8 C 1,8 C 15,0 km/h (3 Bft)
16.10.2009 18:25 6,7 C 8,7 C 6,5 C 6,2 C 4,2 C 0,0 C 94 % 98 % 0 % 1009,8 hPa 0,0 l/m 12,9 km/h (3 Bft) SW 225 0 min 0,0 UV-I 5,8 C 1,1 C 13,0 km/h (3 Bft)
16.10.2009 18:30 6,5 C 8,7 C 6,4 C 6,0 C 4,1 C 0,0 C 94 % 98 % 0 % 1009,8 hPa 0,0 l/m 11,7 km/h (2 Bft) W-SW 247 0 min 0,0 UV-I 5,6 C 1,2 C 26,6 km/h (4 Bft)
16.10.2009 18:35 6,4 C 8,7 C 6,2 C 5,6 C 4,1 C 0,0 C 94 % 97 % 0 % 1009,8 hPa 0,0 l/m 11,1 km/h (2 Bft) SW 225 0 min 0,0 UV-I 5,5 C 1,3 C 22,9 km/h (4 Bft)
16.10.2009 18:40 6,4 C 8,7 C 6,1 C 5,6 C 4,1 C 0,0 C 94 % 97 % 0 % 1009,8 hPa 0,0 l/m 10,5 km/h (2 Bft) SW 225 0 min 0,0 UV-I 5,5 C 1,5 C 16,1 km/h (3 Bft)
16.10.2009 18:45 6,4 C 8,7 C 6,0 C 5,9 C 4,2 C 0,0 C 94 % 97 % 0 % 1009,8 hPa 0,0 l/m 9,8 km/h (2 Bft) S 180 0 min 0,0 UV-I 5,5 C 1,7 C 12,7 km/h (3 Bft)
16.10.2009 18:50 6,3 C 8,7 C 6,1 C 5,8 C 4,1 C 0,0 C 94 % 97 % 0 % 1009,8 hPa 0,0 l/m 9,5 km/h (2 Bft) SW 225 0 min 0,0 UV-I 5,4 C 1,7 C 12,7 km/h (3 Bft)
16.10.2009 18:55 6,3 C 8,7 C 6,0 C 5,8 C 4,0 C 0,0 C 94 % 97 % 0 % 1009,8 hPa 0,0 l/m 9,3 km/h (2 Bft) SW 225 0 min 0,0 UV-I 5,4 C 1,6 C 9,7 km/h (2 Bft)
16.10.2009 19:00 6,2 C 8,7 C 5,9 C 5,7 C 4,2 C 0,0 C 94 % 97 % 0 % 1009,8 hPa 0,0 l/m 8,5 km/h (2 Bft) S-SW 202 0 min 0,0 UV-I 5,3 C 2,1 C 17,1 km/h (3 Bft)
16.10.2009 19:10 6,1 C 8,7 C 5,9 C 5,7 C 4,1 C 0,0 C 94 % 97 % 0 % 1010,2 hPa 0,0 l/m 8,9 km/h (2 Bft) S 180 0 min 0,0 UV-I 5,2 C 1,8 C 8,2 km/h (2 Bft)
16.10.2009 19:15 6,1 C 8,7 C 5,9 C 5,7 C 4,3 C 0,0 C 94 % 97 % 0 % 1010,2 hPa 0,0 l/m 7,7 km/h (2 Bft) SW 225 0 min 0,0 UV-I 5,2 C 2,4 C 6,3 km/h (2 Bft)
16.10.2009 19:20 6,1 C 8,7 C 5,9 C 5,7 C 4,1 C 0,0 C 94 % 97 % 0 % 1010,2 hPa 0,0 l/m 9,0 km/h (2 Bft) SW 225 0 min 0,0 UV-I 5,2 C 1,8 C 6,4 km/h (2 Bft)
16.10.2009 19:25 6,1 C 8,7 C 5,9 C 5,4 C 4,1 C 0,0 C 94 % 97 % 0 % 1009,5 hPa 0,7 l/m 9,2 km/h (2 Bft) S 180 0 min 0,0 UV-I 5,2 C 1,8 C 8,4 km/h (2 Bft)
16.10.2009 19:30 6,1 C 8,8 C 6,0 C 5,7 C 4,3 C 0,0 C 94 % 97 % 0 % 1009,5 hPa 0,0 l/m 8,2 km/h (2 Bft) W 270 0 min 0,0 UV-I 5,2 C 2,3 C 8,5 km/h (2 Bft)
16.10.2009 19:35 6,1 C 8,8 C 6,0 C 5,5 C 4,4 C 0,0 C 94 % 97 % 0 % 1009,5 hPa 0,0 l/m 7,6 km/h (2 Bft) SW 225 0 min 0,0 UV-I 5,2 C 2,5 C 6,8 km/h (2 Bft)
16.10.2009 19:40 6,1 C 8,7 C 6,0 C 5,6 C 4,6 C 0,0 C 94 % 97 % 0 % 1009,5 hPa 0,0 l/m 7,2 km/h (2 Bft) S-SW 202 0 min 0,0 UV-I 5,2 C 2,9 C 14,2 km/h (3 Bft)
16.10.2009 19:45 6,1 C 8,8 C 6,1 C 5,7 C 4,4 C 0,0 C 94 % 97 % 0 % 1009,7 hPa 0,0 l/m 8,0 km/h (2 Bft) W-SW 247 0 min 0,0 UV-I 5,2 C 2,4 C 11,4 km/h (2 Bft)
16.10.2009 19:50 6,1 C 8,7 C 6,0 C 5,7 C 4,3 C 0,0 C 94 % 97 % 0 % 1009,7 hPa 0,0 l/m 8,7 km/h (2 Bft) W-SW 247 0 min 0,0 UV-I 5,2 C 2,1 C 11,7 km/h (2 Bft)
16.10.2009 19:55 6,2 C 8,8 C 6,0 C 5,8 C 4,4 C 0,0 C 94 % 97 % 0 % 1009,7 hPa 0,0 l/m 7,9 km/h (2 Bft) S-SW 202 0 min 0,0 UV-I 5,3 C 2,5 C 7,6 km/h (2 Bft)
16.10.2009 20:00 6,1 C 8,8 C 6,0 C 5,5 C 4,4 C 0,0 C 94 % 97 % 0 % 1009,7 hPa 0,0 l/m 8,0 km/h (2 Bft) W 270 0 min 0,0 UV-I 5,2 C 2,4 C 17,9 km/h (3 Bft)
16.10.2009 20:10 6,0 C 8,8 C 5,7 C 5,6 C 4,0 C 0,0 C 93 % 97 % 0 % 1010,4 hPa 0,0 l/m 8,9 km/h (2 Bft) SW 225 0 min 0,0 UV-I 5,0 C 1,7 C 10,8 km/h (2 Bft)
16.10.2009 20:15 5,9 C 8,8 C 5,6 C 5,3 C 4,1 C 0,0 C 93 % 97 % 0 % 1010,4 hPa 0,0 l/m 7,6 km/h (2 Bft) S 180 0 min 0,0 UV-I 4,9 C 2,2 C 5,1 km/h (1 Bft)
16.10.2009 20:20 5,8 C 8,8 C 5,6 C 5,3 C 4,3 C 0,0 C 93 % 97 % 0 % 1010,4 hPa 0,0 l/m 6,3 km/h (2 Bft) S-SO 157 0 min 0,0 UV-I 4,8 C 2,8 C 4,8 km/h (1 Bft)
16.10.2009 20:25 5,9 C 8,8 C 5,5 C 5,3 C 4,2 C 0,0 C 93 % 97 % 0 % 1010,5 hPa 0,0 l/m 6,3 km/h (2 Bft) N-NW 337 0 min 0,0 UV-I 4,9 C 2,7 C 11,7 km/h (2 Bft)
16.10.2009 20:30 5,7 C 8,8 C 5,3 C 5,3 C 3,6 C 0,0 C 93 % 97 % 0 % 1010,5 hPa 0,0 l/m 7,7 km/h (2 Bft) W-NW 292 0 min 0,0 UV-I 4,7 C 1,6 C 23,3 km/h (4 Bft)
16.10.2009 20:35 5,6 C 8,8 C 5,3 C 5,1 C 3,4 C 0,0 C 93 % 97 % 0 % 1010,5 hPa 0,7 l/m 8,0 km/h (2 Bft) W-NW 292 0 min 0,0 UV-I 4,6 C 1,3 C 14,5 km/h (3 Bft)
16.10.2009 20:40 5,6 C 8,8 C 5,3 C 4,9 C 3,4 C 0,0 C 93 % 97 % 0 % 1010,5 hPa 0,0 l/m 8,0 km/h (2 Bft) S 180 0 min 0,0 UV-I 4,6 C 1,3 C 13,0 km/h (3 Bft)
16.10.2009 20:45 5,5 C 8,8 C 5,2 C 4,8 C 3,4 C 0,0 C 93 % 97 % 0 % 1011,1 hPa 0,0 l/m 7,9 km/h (2 Bft) W-SW 247 0 min 0,0 UV-I 4,5 C 1,3 C 11,7 km/h (2 Bft)
16.10.2009 20:50 5,5 C 8,9 C 5,1 C 4,8 C 3,3 C 0,0 C 93 % 97 % 0 % 1011,1 hPa 0,0 l/m 7,6 km/h (2 Bft) S 180 0 min 0,0 UV-I 4,5 C 1,3 C 11,7 km/h (2 Bft)
16.10.2009 20:55 5,3 C 8,9 C 5,0 C 4,7 C 3,4 C 0,0 C 93 % 96 % 0 % 1011,1 hPa 0,0 l/m 7,1 km/h (2 Bft) W-SW 247 0 min 0,0 UV-I 4,3 C 1,5 C 6,9 km/h (2 Bft)
16.10.2009 21:00 5,3 C 8,9 C 4,9 C 4,7 C 3,4 C 0,0 C 93 % 97 % 0 % 1011,1 hPa 0,7 l/m 6,8 km/h (2 Bft) S 180 0 min 0,0 UV-I 4,3 C 1,6 C 4,5 km/h (1 Bft)
16.10.2009 21:10 5,1 C 8,9 C 4,7 C 4,6 C 3,5 C 0,0 C 93 % 97 % 0 % 1011,6 hPa 0,0 l/m 5,6 km/h (1 Bft) W-SW 247 0 min 0,0 UV-I 4,1 C 2,1 C 13,5 km/h (3 Bft)
16.10.2009 21:15 5,1 C 8,9 C 4,7 C 4,5 C 3,4 C 0,0 C 92 % 96 % 0 % 1011,6 hPa 0,0 l/m 5,5 km/h (1 Bft) NW 315 0 min 0,0 UV-I 3,9 C 2,1 C 9,8 km/h (2 Bft)
16.10.2009 21:20 4,9 C 8,9 C 4,5 C 4,3 C 3,1 C 0,0 C 92 % 96 % 0 % 1011,6 hPa 0,0 l/m 5,5 km/h (1 Bft) S 180 0 min 0,0 UV-I 3,7 C 1,7 C 11,3 km/h (2 Bft)
16.10.2009 21:25 4,9 C 8,9 C 4,5 C 4,3 C 3,0 C 0,0 C 92 % 96 % 0 % 1012,5 hPa 0,0 l/m 5,5 km/h (1 Bft) S-SW 202 0 min 0,0 UV-I 3,7 C 1,6 C 10,5 km/h (2 Bft)
16.10.2009 21:30 4,8 C 8,9 C 4,4 C 4,3 C 3,2 C 0,0 C 92 % 97 % 0 % 1012,5 hPa 0,7 l/m 5,0 km/h (1 Bft) O-SO 112 0 min 0,0 UV-I 3,6 C 2,0 C 6,3 km/h (2 Bft)
16.10.2009 21:35 4,7 C 8,9 C 4,3 C 4,3 C 3,4 C 0,0 C 92 % 97 % 0 % 1012,5 hPa 0,0 l/m 4,3 km/h (1 Bft) N-NW 337 0 min 0,0 UV-I 3,5 C 3,4 C 5,0 km/h (1 Bft)
16.10.2009 21:40 4,7 C 8,9 C 4,3 C 4,1 C 3,0 C 0,0 C 92 % 97 % 0 % 1012,5 hPa 0,0 l/m 4,8 km/h (1 Bft) SW 225 0 min 0,0 UV-I 3,5 C 1,9 C 8,5 km/h (2 Bft)
16.10.2009 21:45 4,7 C 8,9 C 4,2 C 4,1 C 2,8 C 0,0 C 92 % 97 % 0 % 1012,9 hPa 0,0 l/m 5,3 km/h (1 Bft) W-SW 247 0 min 0,0 UV-I 3,5 C 1,5 C 9,3 km/h (2 Bft)
16.10.2009 21:50 4,5 C 8,9 C 4,1 C 4,0 C 3,1 C 0,0 C 92 % 97 % 0 % 1012,9 hPa 0,0 l/m 4,3 km/h (1 Bft) O-NO 67 0 min 0,0 UV-I 3,3 C 3,1 C 4,5 km/h (1 Bft)
16.10.2009 21:55 4,5 C 8,9 C 4,0 C 4,1 C 3,2 C 0,0 C 92 % 97 % 0 % 1012,9 hPa 0,0 l/m 4,0 km/h (1 Bft) W 270 0 min 0,0 UV-I 3,3 C 3,2 C 2,7 km/h (1 Bft)
16.10.2009 22:00 4,4 C 8,9 C 4,1 C 4,1 C 3,4 C 0,0 C 92 % 97 % 0 % 1012,9 hPa 0,0 l/m 3,5 km/h (1 Bft) W 270 0 min 0,0 UV-I 3,2 C 3,4 C 6,6 km/h (2 Bft)
16.10.2009 22:06 4,4 C 8,9 C 4,0 C 4,2 C 3,8 C 0,0 C 92 % 97 % 0 % 1013,2 hPa 0,0 l/m 3,1 km/h (1 Bft) W-SW 247 0 min 0,0 UV-I 3,2 C 3,8 C 6,1 km/h (2 Bft)
16.10.2009 22:07 4,4 C 8,9 C 4,0 C 4,2 C 3,9 C 0,0 C 92 % 97 % 0 % 1013,2 hPa 0,0 l/m 2,4 km/h (1 Bft) S 180 0 min 0,0 UV-I 3,2 C 3,9 C 3,1 km/h (1 Bft)
16.10.2009 22:10 4,4 C 8,9 C 4,0 C 4,2 C 3,9 C 0,0 C 92 % 97 % 0 % 1013,2 hPa 0,0 l/m 2,4 km/h (1 Bft) S 180 0 min 0,0 UV-I 3,2 C 3,9 C 3,1 km/h (1 Bft)
16.10.2009 22:15 4,4 C 8,9 C 4,0 C 4,1 C 3,6 C 0,0 C 92 % 97 % 0 % 1013,2 hPa 0,0 l/m 3,4 km/h (1 Bft) W-SW 247 0 min 0,0 UV-I 3,2 C 3,6 C 8,7 km/h (2 Bft)
16.10.2009 22:20 4,3 C 8,9 C 3,9 C 3,8 C 2,9 C 0,0 C 92 % 97 % 0 % 1013,2 hPa 0,0 l/m 4,3 km/h (1 Bft) W-SW 247 0 min 0,0 UV-I 3,1 C 2,9 C 4,7 km/h (1 Bft)
16.10.2009 22:25 4,3 C 8,9 C 3,9 C 3,8 C 2,9 C 0,0 C 92 % 97 % 0 % 1013,7 hPa 0,0 l/m 4,5 km/h (1 Bft) S 180 0 min 0,0 UV-I 3,1 C 2,9 C 2,9 km/h (1 Bft)
16.10.2009 22:30 4,2 C 8,9 C 3,7 C 4,0 C 3,5 C 0,0 C 92 % 97 % 0 % 1013,7 hPa 0,0 l/m 3,2 km/h (1 Bft) S-SO 157 0 min 0,0 UV-I 3,0 C 3,5 C 1,6 km/h (1 Bft)
16.10.2009 22:35 4,3 C 8,9 C 3,7 C 4,1 C 3,7 C 0,0 C 92 % 97 % 0 % 1013,7 hPa 0,0 l/m 2,9 km/h (1 Bft) SO 135 0 min 0,0 UV-I 3,1 C 3,7 C 4,5 km/h (1 Bft)
16.10.2009 22:40 4,3 C 8,8 C 3,6 C 3,9 C 3,2 C 0,0 C 92 % 97 % 0 % 1013,7 hPa 0,0 l/m 3,5 km/h (1 Bft) W-SW 247 0 min 0,0 UV-I 3,1 C 3,2 C 10,1 km/h (2 Bft)
16.10.2009 22:45 4,2 C 8,8 C 3,6 C 3,7 C 2,8 C 0,0 C 92 % 97 % 0 % 1014,1 hPa 0,0 l/m 4,3 km/h (1 Bft) N-NW 337 0 min 0,0 UV-I 3,0 C 2,8 C 6,0 km/h (2 Bft)
16.10.2009 22:50 4,2 C 8,8 C 3,7 C 3,7 C 2,8 C 0,0 C 92 % 97 % 0 % 1014,1 hPa 0,0 l/m 4,2 km/h (1 Bft) SO 135 0 min 0,0 UV-I 3,0 C 2,8 C 1,8 km/h (1 Bft)
16.10.2009 22:55 4,2 C 8,8 C 3,7 C 3,9 C 3,3 C 0,0 C 92 % 97 % 0 % 1014,1 hPa 0,0 l/m 3,4 km/h (1 Bft) SO 135 0 min 0,0 UV-I 3,0 C 3,3 C 2,7 km/h (1 Bft)
16.10.2009 23:00 4,2 C 8,8 C 3,7 C 4,0 C 3,6 C 0,0 C 92 % 97 % 0 % 1014,1 hPa 0,0 l/m 2,4 km/h (1 Bft) W-NW 292 0 min 0,0 UV-I 3,0 C 3,6 C 6,3 km/h (2 Bft)
16.10.2009 23:06 4,1 C 8,8 C 3,6 C 3,9 C 3,6 C 0,0 C 92 % 97 % 0 % 1014,6 hPa 0,0 l/m 1,9 km/h (1 Bft) N-NW 337 0 min 0,0 UV-I 2,9 C 3,6 C 3,1 km/h (1 Bft)
16.10.2009 23:07 4,1 C 8,8 C 3,7 C 3,9 C 3,5 C 0,0 C 92 % 97 % 0 % 1014,6 hPa 0,0 l/m 2,4 km/h (1 Bft) W 270 0 min 0,0 UV-I 2,9 C 3,5 C 7,4 km/h (2 Bft)
16.10.2009 23:10 4,1 C 8,8 C 3,7 C 3,9 C 3,5 C 0,0 C 92 % 97 % 0 % 1014,6 hPa 0,0 l/m 2,4 km/h (1 Bft) W 270 0 min 0,0 UV-I 2,9 C 3,5 C 7,4 km/h (2 Bft)
16.10.2009 23:15 4,1 C 8,8 C 3,7 C 3,9 C 3,5 C 0,0 C 92 % 97 % 0 % 1014,6 hPa 0,0 l/m 2,4 km/h (1 Bft) N-NO 22 0 min 0,0 UV-I 2,9 C 3,5 C 5,1 km/h (1 Bft)
16.10.2009 23:20 4,1 C 8,8 C 3,7 C 3,9 C 3,5 C 0,0 C 92 % 97 % 0 % 1014,6 hPa 0,0 l/m 2,3 km/h (1 Bft) S 180 0 min 0,0 UV-I 2,9 C 3,5 C 1,6 km/h (1 Bft)
16.10.2009 23:25 4,1 C 8,8 C 3,6 C 3,9 C 3,5 C 0,0 C 92 % 97 % 0 % 1015,1 hPa 0,0 l/m 2,4 km/h (1 Bft) S 180 0 min 0,0 UV-I 2,9 C 3,5 C 2,6 km/h (1 Bft)
16.10.2009 23:30 4,1 C 8,8 C 3,6 C 3,9 C 3,5 C 0,0 C 92 % 97 % 0 % 1015,1 hPa 0,0 l/m 2,6 km/h (1 Bft) N-NW 337 0 min 0,0 UV-I 2,9 C 3,5 C 3,1 km/h (1 Bft)
16.10.2009 23:35 4,1 C 8,8 C 3,5 C 3,9 C 3,4 C 0,0 C 92 % 97 % 0 % 1015,1 hPa 0,0 l/m 2,4 km/h (1 Bft) N-NW 337 0 min 0,0 UV-I 2,9 C 3,4 C 2,9 km/h (1 Bft)
16.10.2009 23:40 4,0 C 8,8 C 3,5 C 3,8 C 3,4 C 0,0 C 91 % 97 % 0 % 1015,1 hPa 0,0 l/m 2,1 km/h (1 Bft) N-NW 337 0 min 0,0 UV-I 2,7 C 3,4 C 0,0 km/h (0 Bft)
16.10.2009 23:45 4,0 C 8,8 C 3,5 C 3,8 C 3,3 C 0,0 C 91 % 97 % 0 % 1015,5 hPa 0,0 l/m 1,4 km/h (1 Bft) O-NO 67 0 min 0,0 UV-I 2,7 C 3,3 C 1,9 km/h (1 Bft)
16.10.2009 23:50 4,0 C 8,8 C 3,5 C 3,8 C 3,3 C 0,0 C 91 % 97 % 0 % 1015,5 hPa 0,0 l/m 0,5 km/h (0 Bft) SO 135 0 min 0,0 UV-I 2,7 C 3,3 C 0,0 km/h (0 Bft)
16.10.2009 23:55 4,0 C 8,8 C 3,5 C 3,7 C 3,2 C 0,0 C 91 % 97 % 0 % 1015,5 hPa 0,0 l/m 0,8 km/h (0 Bft) W-SW 247 0 min 0,0 UV-I 2,7 C 3,2 C 5,3 km/h (1 Bft)
_ Min-Zeit 04:45 10:15 04:51 04:51 05:30 00:00 10:15 03:07 00:00 17:25 - 23:50 - - - 00:00 10:15 05:30 11:30
Minimum _ 2,7 C 7,8 C 2,2 C 1,8 C -0,1 C 0,0 C 87 % 96 % 0 % 1009,4 hPa - 0,5 km/h (0 Bft) - - - 0,0 UV-I 1,2 C -2,5 C 0,0 km/h (0 Bft)
_ Max-Zeit 15:35 20:50 15:15 15:15 15:15 15:15 14:35 14:20 15:15 00:25 02:00 18:25 - - 15:10 14:40 15:35 15:15 18:30
Maximum _ 6,9 C 8,9 C 8,3 C 10,8 C 10,8 C 4,1 C 95 % 99 % 100 % 1022,9 hPa 0,7 l/m 12,9 km/h
SW (3 Bft)
- - 10 min 0,4 UV-I 6,0 C 10,8 C 26,6 km/h
W-SW (4 Bft)
Durchschnitt _ 4,3 C 8,4 C 4,1 C 3,9 C 2,9 C 0,1 C 92 % 97 % 3 % 1015,5 hPa #15,8 l/m 5,7 km/h (1 Bft) SW - #20 min. 0,2 UV-I 3,1 C 1,7 C 8,0 km/h (2 Bft)
2013 www.wetterstation-wechselburg.de